Previsão horária em Aadorf

Hoje, 17 Abril, Sábado

Tempo Temperatura Precipitação Vento Pressão Humidade
00:00 -2°C° 0 mm 1 m/s 711 mmHg 93%
01:00 -3°C° 0 mm 1 m/s 710 mmHg 95%
02:00 -3°C° 0 mm 1 m/s 710 mmHg 95%
03:00 -3°C° 0 mm 1 m/s 710 mmHg 95%
04:00 -3°C° 0 mm 1 m/s 710 mmHg 96%
05:00 -2°C° 0 mm 1 m/s 710 mmHg 92%
06:00 -3°C° 0 mm 0 m/s 710 mmHg 89%
07:00 -2°C° 0 mm 0 m/s 711 mmHg 85%
08:00 +2°C° 0 mm 1 m/s 710 mmHg 76%
09:00 +3°C° 0 mm 2 m/s 710 mmHg 66%
10:00 +4°C° 0 mm 3 m/s 710 mmHg 56%
11:00 +5°C° 0 mm 3 m/s 710 mmHg 54%
12:00 +6°C° 0 mm 4 m/s 709 mmHg 51%
13:00 +7°C° 0 mm 4 m/s 709 mmHg 49%
14:00 +7°C° 0 mm 4 m/s 709 mmHg 52%
15:00 +6°C° 0 mm 4 m/s 709 mmHg 56%
16:00 +6°C° 0 mm 4 m/s 709 mmHg 59%
17:00 +5°C° 0 mm 3 m/s 709 mmHg 65%
18:00 +5°C° 0 mm 2 m/s 709 mmHg 70%
19:00 +5°C° 0 mm 1 m/s 709 mmHg 76%
20:00 +4°C° 0 mm 1 m/s 709 mmHg 80%
21:00 +4°C° 0 mm 1 m/s 709 mmHg 84%
22:00 +3°C° 0 mm 1 m/s 709 mmHg 88%
23:00 +3°C° 0 mm 1 m/s 709 mmHg 90%

Amanhã, 18 Abril, Domingo

Tempo Temperatura Precipitação Vento Pressão Humidade
00:00 +3°C° 0 mm 1 m/s 709 mmHg 91%
01:00 +3°C° 0 mm 1 m/s 709 mmHg 93%
02:00 +2°C° 0 mm 1 m/s 709 mmHg 94%
03:00 +2°C° 0 mm 1 m/s 709 mmHg 95%
04:00 +2°C° 0 mm 1 m/s 709 mmHg 96%
05:00 +2°C° 0.1 mm 1 m/s 709 mmHg 97%
06:00 +3°C° 0.1 mm 1 m/s 709 mmHg 97%
07:00 +2°C° 0.1 mm 0 m/s 709 mmHg 97%
08:00 +3°C° 0.1 mm 1 m/s 709 mmHg 96%
09:00 +3°C° 0.1 mm 1 m/s 709 mmHg 95%
10:00 +4°C° 0.1 mm 1 m/s 709 mmHg 93%
11:00 +4°C° 0 mm 1 m/s 709 mmHg 91%
12:00 +5°C° 0 mm 1 m/s 709 mmHg 88%
13:00 +5°C° 0 mm 1 m/s 710 mmHg 85%
14:00 +6°C° 0.1 mm 1 m/s 709 mmHg 81%
15:00 +7°C° 0.1 mm 1 m/s 709 mmHg 76%
16:00 +6°C° 0.1 mm 2 m/s 709 mmHg 72%
17:00 +6°C° 0.1 mm 1 m/s 709 mmHg 78%
18:00 +5°C° 0.1 mm 1 m/s 709 mmHg 84%
19:00 +5°C° 0.1 mm 1 m/s 709 mmHg 90%
20:00 +3°C° 0 mm 0 m/s 709 mmHg 92%
21:00 +2°C° 0 mm 0 m/s 709 mmHg 93%
22:00 +1°C° 0 mm 0 m/s 709 mmHg 95%
23:00 +1°C° 0 mm 0 m/s 709 mmHg 95%

Depois de amanhã, 19 Abril, Segunda-feira

Tempo Temperatura Precipitação Vento Pressão Humidade
00:00 +1°C° 0 mm 0 m/s 709 mmHg 95%
01:00 +1°C° 0 mm 0 m/s 709 mmHg 94%
02:00 +1°C° 0 mm 0 m/s 709 mmHg 94%
03:00 +1°C° 0 mm 0 m/s 709 mmHg 94%
04:00 +2°C° 0 mm 0 m/s 709 mmHg 94%
05:00 +2°C° 0.1 mm 0 m/s 709 mmHg 94%
06:00 +2°C° 0.1 mm 0 m/s 709 mmHg 93%
07:00 +2°C° 0.1 mm 0 m/s 709 mmHg 93%
08:00 +3°C° 0.1 mm 0 m/s 709 mmHg 90%
09:00 +4°C° 0.1 mm 0 m/s 709 mmHg 86%
10:00 +6°C° 0.1 mm 1 m/s 709 mmHg 83%
11:00 +6°C° 0.1 mm 1 m/s 708 mmHg 80%
12:00 +7°C° 0.1 mm 1 m/s 708 mmHg 77%
13:00 +7°C° 0.1 mm 2 m/s 708 mmHg 74%
14:00 +8°C° 0.1 mm 1 m/s 708 mmHg 70%
15:00 +9°C° 0.1 mm 1 m/s 708 mmHg 66%
16:00 +9°C° 0.1 mm 1 m/s 707 mmHg 62%
17:00 +8°C° 0 mm 1 m/s 707 mmHg 68%
18:00 +7°C° 0 mm 1 m/s 707 mmHg 74%
19:00 +5°C° 0 mm 1 m/s 707 mmHg 80%
20:00 +4°C° 0 mm 1 m/s 707 mmHg 83%
21:00 +3°C° 0 mm 1 m/s 707 mmHg 87%
22:00 +2°C° 0 mm 1 m/s 707 mmHg 91%
23:00 +2°C° 0 mm 1 m/s 707 mmHg 91%

20 Abril, Terça-feira

Tempo Temperatura Precipitação Vento Pressão Humidade
00:00 +1°C° 0 mm 1 m/s 707 mmHg 92%
01:00 +1°C° 0 mm 1 m/s 706 mmHg 92%
02:00 +1°C° 0 mm 1 m/s 706 mmHg 92%
03:00 -1°C° 0 mm 0 m/s 706 mmHg 92%
04:00 -1°C° 0 mm 0 m/s 706 mmHg 93%
05:00 0°C° 0 mm 0 m/s 706 mmHg 90%
06:00 +1°C° 0 mm 0 m/s 706 mmHg 86%
07:00 +2°C° 0 mm 0 m/s 706 mmHg 83%
08:00 +4°C° 0 mm 0 m/s 706 mmHg 75%
09:00 +8°C° 0 mm 1 m/s 706 mmHg 66%
10:00 +10°C° 0 mm 1 m/s 706 mmHg 57%
11:00 +11°C° 0 mm 1 m/s 706 mmHg 52%
12:00 +12°C° 0 mm 1 m/s 706 mmHg 48%
13:00 +14°C° 0 mm 1 m/s 705 mmHg 44%
14:00 +14°C° 0 mm 1 m/s 705 mmHg 43%
15:00 +14°C° 0 mm 1 m/s 705 mmHg 43%
16:00 +14°C° 0 mm 1 m/s 704 mmHg 42%
17:00 +12°C° 0 mm 1 m/s 704 mmHg 52%
18:00 +10°C° 0 mm 1 m/s 704 mmHg 63%
19:00 +8°C° 0 mm 1 m/s 704 mmHg 73%
20:00 +7°C° 0 mm 1 m/s 705 mmHg 78%
21:00 +5°C° 0 mm 1 m/s 705 mmHg 83%
22:00 +4°C° 0 mm 1 m/s 705 mmHg 88%
23:00 +4°C° 0 mm 1 m/s 706 mmHg 89%

21 Abril, Quarta-feira

Tempo Temperatura Precipitação Vento Pressão Humidade
00:00 +3°C° 0 mm 1 m/s 706 mmHg 89%
01:00 +3°C° 0 mm 1 m/s 706 mmHg 90%
02:00 +3°C° 0 mm 1 m/s 706 mmHg 90%
03:00 +2°C° 0 mm 1 m/s 706 mmHg 90%
04:00 +2°C° 0 mm 1 m/s 706 mmHg 91%
05:00 +2°C° 0 mm 0 m/s 706 mmHg 87%
06:00 +3°C° 0 mm 0 m/s 706 mmHg 84%
07:00 +4°C° 0 mm 0 m/s 706 mmHg 80%
08:00 +6°C° 0 mm 0 m/s 707 mmHg 73%
09:00 +10°C° 0 mm 1 m/s 707 mmHg 65%
10:00 +12°C° 0 mm 1 m/s 707 mmHg 57%
11:00 +13°C° 0.1 mm 1 m/s 707 mmHg 53%
12:00 +14°C° 0.1 mm 1 m/s 706 mmHg 48%
13:00 +15°C° 0.1 mm 1 m/s 706 mmHg 44%
14:00 +15°C° 0.1 mm 2 m/s 706 mmHg 45%
15:00 +15°C° 0.1 mm 2 m/s 706 mmHg 47%
16:00 +14°C° 0.1 mm 3 m/s 705 mmHg 49%
17:00 +12°C° 0.5 mm 2 m/s 706 mmHg 63%
18:00 +9°C° 0.5 mm 2 m/s 707 mmHg 78%
19:00 +7°C° 0.5 mm 2 m/s 707 mmHg 92%
20:00 +7°C° 0.3 mm 1 m/s 708 mmHg 93%
21:00 +7°C° 0.3 mm 1 m/s 708 mmHg 94%
22:00 +7°C° 0.3 mm 1 m/s 709 mmHg 95%
23:00 +7°C° 0.5 mm 1 m/s 709 mmHg 94%

22 Abril, Quinta-feira

Tempo Temperatura Precipitação Vento Pressão Humidade
00:00 +6°C° 0.5 mm 1 m/s 709 mmHg 94%
01:00 +5°C° 0.5 mm 1 m/s 709 mmHg 94%
02:00 +5°C° 0.2 mm 1 m/s 710 mmHg 93%
03:00 +4°C° 0.2 mm 1 m/s 710 mmHg 93%
04:00 +3°C° 0.2 mm 0 m/s 710 mmHg 92%
05:00 +3°C° 0.1 mm 0 m/s 710 mmHg 91%
06:00 +3°C° 0.1 mm 0 m/s 710 mmHg 91%
07:00 +3°C° 0.1 mm 0 m/s 711 mmHg 90%
08:00 +5°C° 0 mm 1 m/s 711 mmHg 83%
09:00 +6°C° 0 mm 1 m/s 711 mmHg 75%
10:00 +7°C° 0 mm 1 m/s 711 mmHg 68%
11:00 +7°C° 0.1 mm 2 m/s 711 mmHg 64%
12:00 +7°C° 0.1 mm 2 m/s 711 mmHg 59%
13:00 +8°C° 0.1 mm 2 m/s 711 mmHg 54%
14:00 +8°C° 0.1 mm 3 m/s 711 mmHg 51%
15:00 +8°C° 0.1 mm 3 m/s 711 mmHg 48%
16:00 +8°C° 0.1 mm 3 m/s 712 mmHg 46%
17:00 +7°C° 0.1 mm 3 m/s 712 mmHg 51%
18:00 +5°C° 0.1 mm 2 m/s 712 mmHg 56%
19:00 +5°C° 0.1 mm 1 m/s 713 mmHg 62%
20:00 +4°C° 0 mm 1 m/s 713 mmHg 69%
21:00 +2°C° 0 mm 1 m/s 713 mmHg 76%
22:00 +1°C° 0 mm 1 m/s 714 mmHg 83%
23:00 0°C° 0 mm 1 m/s 714 mmHg 85%
Mostrar mais